Regional Weather Roundup
Issued by NWS

Home | Current Version | Previous Version | Graphics & Text | Print | Product List | Glossary On
Versions: 1 2 3 4 5 6 7 8 9 10 11 12 13 14 15 16 17 18 19 20 21 22 23 24 25 26 27 28 29 30 31 32 33 34 35 36 37 38 39 40 41 42 43 44 45 46 47 48 49 50
000
ASUS43 KIND 250509
RWRIN

WEATHER ROUNDUP FOR INDIANA
NATIONAL WEATHER SERVICE INDIANAPOLIS IN
1200 AM EST THU DEC 25 2014

NOTE: "FAIR" INDICATES FEW OR NO CLOUDS BELOW 12,000 FEET WITH NO
SIGNIFICANT WEATHER AND/OR OBSTRUCTIONS TO VISIBILITY.

* - STATION DOES NOT REPORT WEATHER SUCH AS PRECIPITATION OR FOG.

+ - STATION NOT QUALITY CONTROLLED BY THE NATIONAL WEATHER SERVICE.
    USE DATA WITH CAUTION...ESPECIALLY DEWPOINT AND RELATIVE
    HUMIDITY OBSERVATIONS.

INZ001>003-010>013-019-020-250600-
NORTHWEST INDIANA

CITY           SKY/WX    TMP DP  RH WIND       PRES   REMARKS
GARY /AIRPORT/ CLOUDY    38  32  79 W13       29.63R
KNOX *+        CLOUDY    36  31  83 W15       29.61R
LA PORTE +     CLOUDY    37  36  94 W13       29.60R
MICHIGAN CITY+ CLOUDY    36  32  87 W12G20    29.60R
MONTICELLO +   CLOUDY    35  33  93 W13G18    29.66R WCI  27
RENSSELAER +   CLOUDY    36  36 100 W12G18    29.66R
VALPARAISO     CLOUDY    35  33  92 W14       29.62R WCI  26

$$

LMZ046-743>745-250600-
SOUTHERN LAKE MICHIGAN

STATION/POSITION TIME  TEMP WIND        PRES
                       AIR  DIR/SP/G
                 (UTC) (F)  (DEG/KT/KT) (MB)
MICHIGAN CITY    0500   36  230/ 21/ 24   N/A

$$

INZ004-005-014>016-021>024-250600-
NORTH CENTRAL INDIANA

CITY           SKY/WX    TMP DP  RH WIND       PRES   REMARKS
GOSHEN         CLOUDY    36  34  92 W14       29.58R
LOGANSPORT +   CLOUDY    34  32  93 W18       29.67R WCI  23
PERU/GRISSOM   MIX PCPN  36  36 100 W20       29.65R
ROCHESTER +    CLOUDY    37  36  93 W12       29.63R
SOUTH BEND     CLOUDY    37  34  89 W15       29.60R
WARSAW +       FLURRIES  36  34  93 SW20      29.60R

$$

INZ006>009-017-018-025>027-250600-
NORTHEAST INDIANA

CITY           SKY/WX    TMP DP  RH WIND       PRES   REMARKS
ANGOLA *+      CLOUDY    36  34  93 SW13      29.55R
AUBURN +       CLOUDY    36  32  87 SW10G16   29.59R
FORT WAYNE     CLOUDY    37  33  85 W16       29.62R
HUNTINGTON +   CLOUDY    35  33  92 W13G18    29.63R WCI  27

$$

INZ028-029-035-036-043>045-051>053-250600-
WEST CENTRAL INDIANA

CITY           SKY/WX    TMP DP  RH WIND       PRES   REMARKS
CRAWFORDSVL +  CLOUDY    34  30  86 SW12G17   29.72  FOG     WCI  25
GREENCASTLE +  CLOUDY    34  32  93 W6        29.74R FOG     WCI  29
LAFAYETTE      CLOUDY    35  33  92 W13G22    29.69R WCI  26
TERRE HAUTE    CLOUDY    37  33  85 W12       29.76R

$$

INZ030>032-037>040-046>048-054>057-064-065-250600-
CENTRAL INDIANA

CITY           SKY/WX    TMP DP  RH WIND       PRES   REMARKS
CP ATTERBURY + CLOUDY    37  34  87 MISG      29.74R
FRANKFORT +    CLOUDY    36  36 100 SW15G23   29.70R
INDIANAPOLIS   DRIZZLE   34  32  92 W18       29.71R WCI  23
-EAGLE CREEK   LGT RAIN  35  33  92 W8G16     29.71R WCI  29
KOKOMO *+      CLOUDY    36  32  87 W20G25    29.67R
MARION +       CLOUDY    35  33  94 W15       29.66R WCI  25
MT COMFORT *+  CLOUDY    36  36 100 W18       29.70R
SHELBYVILLE    CLOUDY    39  34  82 SW14      29.71R
ZIONSVILLE +   DRIZZLE   36  32  86 W13G22    29.70R

$$

INZ033-034-041-042-049-050-058-059-250600-
EAST CENTRAL INDIANA

CITY           SKY/WX    TMP DP  RH WIND       PRES   REMARKS
MUNCIE         CLOUDY    37  33  85 SW14      29.66R

$$

INZ060-061-067>069-081>083-085>088-250600-
SOUTHWEST INDIANA

CITY           SKY/WX    TMP DP  RH WIND       PRES   REMARKS
EVANSVILLE     CLOUDY    40  34  79 W10       29.86R
HUNTINGBURG *+ CLOUDY    39  34  81 W15       29.83S
WASHINGTON +   CLOUDY    38  33  83 W10       29.81R

$$

INZ062-063-066-070>080-084-089>092-250600-
SOUTH CENTRAL AND SOUTHEAST INDIANA

CITY           SKY/WX    TMP DP  RH WIND       PRES   REMARKS
BLOOMINGTON    LGT RAIN  37  34  89 W10       29.76R
NORTH VERNON + CLOUDY    39  39 100 SW14      29.76
SEYMOUR +      CLOUDY    39  36  87 SW15      29.77

$$



USA.gov is the U.S. government's official web portal to all federal, state and local government web resources and services.